| time (UTC) | temp F | wind direction | speed knots | gust knots | rain 1hr in | rain 24hr in | rain mn in | humidity % | barometer mb |
| 20260906164603 | 53 | 100 | 0.9 | 2.6 | 0.14 | 0.39 | 0.39 | 93 | 1016.7 |
| 20260906163059 | 53 | 108 | 0.9 | 1.7 | 0.16 | 0.37 | 0.37 | 93 | 1016.7 |
| 20260906161602 | 53 | 98 | 0.0 | 1.7 | 0.16 | 0.33 | 0.33 | 93 | 1016.5 |
| 20260906154604 | 52 | 171 | 0.0 | 1.7 | 0.12 | 0.25 | 0.25 | 92 | 1016.4 |
| 20260906153059 | 52 | 146 | 0.9 | 1.7 | 0.11 | 0.21 | 0.21 | 92 | 1016.5 |
| 20260906151601 | 52 | 198 | 0.9 | 2.6 | 0.08 | 0.17 | 0.17 | 92 | 1016.4 |
| 20260906150104 | 52 | 183 | 1.7 | 2.6 | 0.07 | 0.15 | 0.15 | 92 | 1016.2 |
| 20260906144622 | 52 | 169 | 0.9 | 4.3 | 0.06 | 0.13 | 0.13 | 91 | 1016.1 |
| 20260906143103 | 52 | 149 | 1.7 | 3.5 | 0.04 | 0.10 | 0.10 | 91 | 1016.0 |
| 20260906141624 | 52 | 188 | 0.0 | 1.7 | 0.06 | 0.09 | 0.09 | 91 | 1015.8 |
| 20260906140104 | 52 | 164 | 0.9 | 4.3 | 0.07 | 0.08 | 0.08 | 91 | 1015.7 |
| 20260906134554 | 53 | 128 | 0.9 | 1.7 | 0.06 | 0.07 | 0.07 | 91 | 1015.7 |
| 20260906133053 | 53 | 0 | 0.0 | 1.7 | 0.05 | 0.06 | 0.06 | 89 | 1015.5 |
| 20260906131602 | 54 | 172 | 0.0 | 1.7 | 0.02 | 0.03 | 0.03 | 87 | 1015.3 |
| 20260906130058 | 54 | 165 | 0.9 | 2.6 | 0.00 | 0.01 | 0.01 | 85 | 1015.4 |
| 20260906124554 | 54 | 0 | 0.0 | 2.6 | 0.01 | 0.01 | 0.01 | 84 | 1015.4 |
| 20260906123104 | 54 | 238 | 0.9 | 1.7 | 0.01 | 0.01 | 0.01 | 87 | 1015.4 |
| 20260906121556 | 54 | 258 | 0.9 | 1.7 | 0.01 | 0.01 | 0.01 | 86 | 1015.5 |
| 20260906120101 | 55 | 0 | 0.0 | 0.9 | 0.01 | 0.01 | 0.01 | 83 | 1015.8 |
| 20260906114556 | 55 | 0 | 0.0 | 1.7 | 0.00 | 0.00 | 0.00 | 85 | 1015.6 |
| 20260906113100 | 56 | 0 | 0.0 | 1.7 | 0.00 | 0.00 | 0.00 | 79 | 1015.5 |
| 20260906111600 | 55 | 0 | 0.0 | 1.7 | 0.00 | 0.00 | 0.00 | 85 | 1015.6 |
| 20260906110054 | 55 | 0 | 0.0 | 2.6 | 0.00 | 0.00 | 0.00 | 89 | 1015.5 |
| 20260906104621 | 55 | 348 | 1.7 | 3.5 | 0.00 | 0.00 | 0.00 | 88 | 1015.3 |
| 20260906103056 | 55 | 349 | 0.9 | 3.5 | 0.00 | 0.00 | 0.00 | 89 | 1015.5 |
| 20260906101554 | 55 | 337 | 1.7 | 2.6 | 0.00 | 0.00 | 0.00 | 89 | 1015.5 |
| 20260906100100 | 55 | 5 | 1.7 | 4.3 | 0.00 | 0.00 | 0.00 | 89 | 1015.5 |
| 20260906094639 | 55 | 5 | 1.7 | 2.6 | 0.00 | 0.00 | 0.00 | 89 | 1015.4 |
| 20260906093105 | 55 | 344 | 1.7 | 2.6 | 0.00 | 0.00 | 0.00 | 88 | 1015.4 |
| 20260906091555 | 55 | 9 | 1.7 | 4.3 | 0.00 | 0.00 | 0.00 | 88 | 1015.3 |
| 20260906090054 | 56 | 9 | 2.6 | 4.3 | 0.00 | 0.00 | 0.00 | 87 | 1015.4 |
| 20260906084600 | 56 | 349 | 0.9 | 1.7 | 0.00 | 0.00 | 0.00 | 87 | 1015.5 |
| 20260906083103 | 56 | 29 | 1.7 | 3.5 | 0.00 | 0.00 | 0.00 | 88 | 1015.4 |
| 20260906081602 | 56 | 352 | 1.7 | 3.5 | 0.00 | 0.00 | 0.00 | 88 | 1015.4 |
| 20260906074609 | 56 | 352 | 1.7 | 4.3 | 0.00 | 0.00 | 0.00 | 87 | 1015.5 |
| 20260906073058 | 56 | 352 | 2.6 | 2.6 | 0.00 | 0.00 | 0.00 | 87 | 1015.6 |
| 20260906071556 | 57 | 352 | 1.7 | 2.6 | 0.00 | 0.00 | 0.00 | 85 | 1015.6 |
| 20260906064556 | 57 | 347 | 1.7 | 3.5 | 0.00 | 0.00 | 0.00 | 84 | 1015.6 |
| 20260906063103 | 57 | 360 | 1.7 | 3.5 | 0.00 | 0.00 | 0.00 | 83 | 1015.7 |
| 20260906061606 | 57 | 342 | 0.9 | 1.7 | 0.00 | 0.00 | 0.00 | 82 | 1015.7 |
| 20260906060106 | 58 | 334 | 0.9 | 1.7 | 0.00 | 0.00 | 0.00 | 80 | 1015.7 |
| 20260906054557 | 58 | 333 | 1.7 | 4.3 | 0.00 | 0.00 | 0.00 | 80 | 1016.0 |
| 20260906053104 | 58 | 16 | 1.7 | 4.3 | 0.00 | 0.00 | 0.00 | 79 | 1015.9 |
| 20260906051605 | 59 | 338 | 2.6 | 5.2 | 0.00 | 0.00 | 0.00 | 77 | 1015.9 |
| 20260906050114 | 59 | 344 | 2.6 | 4.3 | 0.00 | 0.00 | 0.00 | 76 | 1015.9 |
| 20260906044559 | 60 | 337 | 2.6 | 5.2 | 0.00 | 0.00 | 0.00 | 74 | 1016.0 |
| 20260906043106 | 60 | 360 | 2.6 | 4.3 | 0.00 | 0.00 | 0.00 | 72 | 1016.2 |
| 20260906041601 | 60 | 347 | 2.6 | 4.3 | 0.00 | 0.00 | 0.00 | 71 | 1016.2 |
| 20260906040121 | 60 | 350 | 1.7 | 5.2 | 0.00 | 0.00 | 0.00 | 70 | 1016.3 |
| 20260906034604 | 59 | 352 | 0.9 | 3.5 | 0.00 | 0.00 | 0.00 | 71 | 1016.1 |
| 20260906033100 | 60 | 360 | 0.9 | 2.6 | 0.00 | 0.00 | 0.00 | 70 | 1015.9 |
| 20260906031605 | 60 | 347 | 0.0 | 2.6 | 0.00 | 0.00 | 0.00 | 70 | 1015.8 |
| 20260906030105 | 61 | 352 | 0.0 | 1.7 | 0.00 | 0.00 | 0.00 | 69 | 1015.9 |
| 20260906024603 | 61 | 352 | 0.0 | 1.7 | 0.00 | 0.00 | 0.00 | 67 | 1015.7 |
| 20260906023103 | 62 | 352 | 2.6 | 3.5 | 0.00 | 0.00 | 0.00 | 64 | 1015.7 |
| 20260906021607 | 62 | 360 | 1.7 | 4.3 | 0.00 | 0.00 | 0.00 | 65 | 1015.6 |
| 20260906020106 | 62 | 15 | 1.7 | 2.6 | 0.00 | 0.00 | 0.00 | 64 | 1015.8 |
| 20260906014559 | 63 | 333 | 0.9 | 1.7 | 0.00 | 0.00 | 0.00 | 63 | 1015.9 |
| 20260906013055 | 63 | 336 | 0.9 | 4.3 | 0.00 | 0.00 | 0.00 | 63 | 1016.0 |
| 20260906011603 | 63 | 0 | 0.9 | 2.6 | 0.00 | 0.00 | 0.00 | 65 | 1015.8 |
| 20260906010108 | 64 | 352 | 1.7 | 3.5 | 0.00 | 0.00 | 0.00 | 62 | 1015.8 |
| 20260906004600 | 64 | 352 | 1.7 | 3.5 | 0.00 | 0.00 | 0.00 | 62 | 1015.9 |
| 20260906003100 | 65 | 13 | 0.9 | 2.6 | 0.00 | 0.00 | 0.00 | 65 | 1015.9 |
| 20260906001606 | 66 | 346 | 0.9 | 2.6 | 0.00 | 0.00 | 0.00 | 59 | 1015.9 |
| 20260905234606 | 67 | 352 | 1.7 | 3.5 | 0.00 | 0.00 | 0.00 | 61 | 1016.0 |
| 20260905233112 | 66 | 350 | 0.0 | 0.9 | 0.00 | 0.00 | 0.00 | 60 | 1015.9 |
| 20260905231607 | 65 | 235 | 0.9 | 1.7 | 0.00 | 0.00 | 0.00 | 59 | 1016.1 |
| 20260905230108 | 65 | 130 | 0.9 | 3.5 | 0.00 | 0.00 | 0.00 | 59 | 1016.2 |
| 20260905224601 | 66 | 205 | 0.9 | 7.0 | 0.00 | 0.01 | 0.00 | 58 | 1016.3 |
| 20260905223054 | 66 | 178 | 0.0 | 1.7 | 0.00 | 0.01 | 0.00 | 62 | 1016.3 |
| 20260905221603 | 65 | 0 | 0.9 | 2.6 | 0.00 | 0.01 | 0.00 | 60 | 1016.5 |
| 20260905220104 | 65 | 0 | 0.0 | 1.7 | 0.00 | 0.01 | 0.00 | 64 | 1016.6 |
| 20260905214603 | 64 | 24 | 1.7 | 2.6 | 0.00 | 0.35 | 0.00 | 65 | 1016.7 |
| 20260905213110 | 64 | 17 | 1.7 | 5.2 | 0.00 | 0.35 | 0.00 | 65 | 1016.7 |
| 20260905211555 | 65 | 46 | 1.7 | 3.5 | 0.00 | 0.35 | 0.00 | 63 | 1016.7 |
| 20260905210110 | 64 | 0 | 0.0 | 3.5 | 0.00 | 0.35 | 0.00 | 62 | 1016.8 |
| 20260905204600 | 66 | 321 | 0.9 | 3.5 | 0.00 | 0.35 | 0.00 | 66 | 1016.9 |
| 20260905203103 | 64 | 69 | 0.9 | 7.0 | 0.00 | 0.35 | 0.00 | 64 | 1017.0 |
| 20260905201610 | 65 | 42 | 1.7 | 6.1 | 0.00 | 0.35 | 0.00 | 67 | 1016.9 |
| 20260905200140 | 64 | 342 | 0.9 | 4.3 | 0.00 | 0.35 | 0.00 | 69 | 1017.0 |
| 20260905194610 | 63 | 14 | 1.7 | 6.1 | 0.00 | 0.35 | 0.00 | 72 | 1017.1 |
| 20260905193054 | 63 | 337 | 0.9 | 5.2 | 0.00 | 0.35 | 0.00 | 73 | 1017.2 |
| 20260905191600 | 63 | 53 | 3.5 | 7.0 | 0.00 | 0.35 | 0.00 | 73 | 1017.4 |
| 20260905184611 | 62 | 360 | 3.5 | 7.8 | 0.00 | 0.35 | 0.00 | 76 | 1017.5 |
| 20260905183107 | 61 | 10 | 3.5 | 8.7 | 0.00 | 0.35 | 0.00 | 78 | 1017.6 |
| 20260905181607 | 59 | 15 | 2.6 | 5.2 | 0.00 | 0.35 | 0.00 | 81 | 1017.7 |
| 20260905180112 | 60 | 342 | 1.7 | 5.2 | 0.00 | 0.35 | 0.00 | 80 | 1017.6 |
| 20260905174604 | 59 | 15 | 1.7 | 7.0 | 0.00 | 0.35 | 0.00 | 81 | 1017.6 |
| 20260905173056 | 60 | 15 | 3.5 | 7.8 | 0.00 | 0.35 | 0.00 | 81 | 1017.6 |
| 20260905171607 | 59 | 360 | 0.9 | 2.6 | 0.00 | 0.35 | 0.00 | 80 | 1017.6 |
| 20260905170104 | 58 | 86 | 1.7 | 7.0 | 0.00 | 0.35 | 0.00 | 84 | 1017.6 |